TimeEST,TemperatureF,Dew PointF,Humidity,Sea Level PressureIn,VisibilityMPH,Wind Direction,Wind SpeedMPH,Gust SpeedMPH,PrecipitationIn,Events,Conditions,WindDirDegrees,DateUTC
12:53 AM,37.9,24.1,57,29.76,10.0,South,6.9,-,N/A,,Overcast,190,2013-01-20 05:53:00
1:53 AM,35.1,24.1,64,29.73,10.0,WNW,6.9,-,0.00,,Mostly Cloudy,290,2013-01-20 06:53:00
2:53 AM,30.0,23.0,75,29.70,10.0,SW,3.5,-,N/A,,Clear,220,2013-01-20 07:53:00
3:53 AM,28.0,21.9,78,29.65,10.0,Calm,Calm,-,N/A,,Clear,0,2013-01-20 08:53:00
4:53 AM,35.1,25.0,67,29.58,10.0,SSW,8.1,-,N/A,,Clear,200,2013-01-20 09:53:00
5:53 AM,36.0,25.0,64,29.55,10.0,SSW,10.4,19.6,N/A,,Clear,200,2013-01-20 10:53:00
6:53 AM,36.0,25.0,64,29.54,10.0,SSW,15.0,20.7,N/A,,Clear,200,2013-01-20 11:53:00
7:53 AM,36.0,25.0,64,29.50,10.0,SSW,6.9,-,N/A,,Mostly Cloudy,200,2013-01-20 12:53:00
8:53 AM,37.9,26.1,62,29.52,10.0,SSW,12.7,19.6,N/A,,Overcast,210,2013-01-20 13:53:00
9:36 AM,37.4,28.4,70,29.55,8.0,WSW,8.1,-,0.00,Rain,Light Rain,250,2013-01-20 14:36:00
9:53 AM,37.9,32.0,79,29.58,9.0,WSW,6.9,-,0.00,Rain,Light Rain,250,2013-01-20 14:53:00
10:19 AM,37.4,32.0,81,29.59,10.0,WSW,8.1,17.3,0.01,Rain,Light Rain,240,2013-01-20 15:19:00
10:53 AM,39.9,27.0,60,29.60,10.0,WSW,13.8,27.6,0.01,,Scattered Clouds,240,2013-01-20 15:53:00
11:53 AM,37.0,24.1,59,29.65,8.0,West,19.6,29.9,0.00,Snow,Light Snow,270,2013-01-20 16:53:00
12:53 PM,37.0,14.0,39,29.66,10.0,WSW,18.4,35.7,N/A,,Mostly Cloudy,250,2013-01-20 17:53:00
1:53 PM,35.1,12.9,40,29.71,10.0,West,17.3,29.9,N/A,,Clear,280,2013-01-20 18:53:00
2:53 PM,33.1,10.0,38,29.78,10.0,West,17.3,32.2,N/A,,Mostly Cloudy,260,2013-01-20 19:53:00
3:53 PM,30.0,10.0,43,29.84,10.0,WSW,15.0,29.9,0.00,,Overcast,240,2013-01-20 20:53:00
4:53 PM,28.9,8.1,41,29.86,10.0,WSW,10.4,26.5,N/A,,Overcast,250,2013-01-20 21:53:00
5:53 PM,28.9,10.0,45,29.88,10.0,West,9.2,17.3,N/A,,Overcast,280,2013-01-20 22:53:00
6:37 PM,26.6,15.8,64,29.89,2.5,West,11.5,21.9,0.00,Snow,Light Snow,280,2013-01-20 23:37:00
6:44 PM,26.6,14.0,59,29.89,8.0,West,13.8,20.7,0.00,Snow,Light Snow,280,2013-01-20 23:44:00
6:53 PM,26.1,12.0,55,29.92,10.0,West,13.8,25.3,0.00,,Overcast,280,2013-01-20 23:53:00
7:53 PM,26.1,9.0,49,29.95,10.0,WNW,13.8,19.6,N/A,,Overcast,300,2013-01-21 00:53:00
8:53 PM,23.0,6.1,48,29.97,10.0,WNW,12.7,20.7,N/A,,Mostly Cloudy,290,2013-01-21 01:53:00
9:53 PM,21.0,3.9,48,29.99,10.0,West,8.1,19.6,N/A,,Partly Cloudy,270,2013-01-21 02:53:00
10:53 PM,19.9,1.9,46,30.02,10.0,West,8.1,-,N/A,,Clear,280,2013-01-21 03:53:00
11:53 PM,19.0,1.0,46,30.03,10.0,West,9.2,-,N/A,,Clear,280,2013-01-21 04:53:00